WLF1061 RPLL-VVTS

Flight info

Callsign WLF1061
Flight time 2h 10m
Altitude 34000
Route BETEL2C BETEL M765 PANDI/K0902F340 N500 PTH PTH5M
Aircraft B77L/H-SDE1E2E3FGHIJ2J3J4J5M1RWXY/LB1D1

Departure

Time 2026-05-04 20:03
Airport Ninoy Aquino International Airport (RPLL)

Arrival

Time 2026-05-04 22:14
Airport Tan Son Nhat International Airport (VVTS)
Time Latitude Longitude Altitude Speed Heading
2026-05-04 19:27 14.52424 121.00728 41 ft 0 kts 46°
2026-05-04 19:55 14.52421 121.00725 41 ft 3 kts 46°
2026-05-04 19:56 14.52402 121.00705 40 ft 4 kts 46°
2026-05-04 19:56 14.52387 121.00689 38 ft 4 kts 44°
2026-05-04 19:56 14.52365 121.00676 38 ft 4 kts
2026-05-04 19:56 14.52342 121.00677 37 ft 4 kts 333°
2026-05-04 19:57 14.52321 121.00694 41 ft 4 kts 309°
2026-05-04 19:57 14.52309 121.00709 39 ft 0 kts 314°
2026-05-04 20:01 14.52315 121.00703 39 ft 5 kts 314°
2026-05-04 20:01 14.52364 121.00648 40 ft 14 kts 314°
2026-05-04 20:01 14.52443 121.00567 39 ft 15 kts 315°
2026-05-04 20:01 14.52489 121.00500 39 ft 11 kts 270°
2026-05-04 20:02 14.52463 121.00458 38 ft 1 kts 221°
2026-05-04 20:02 14.52430 121.00426 38 ft 11 kts 225°
2026-05-04 20:02 14.52354 121.00415 38 ft 12 kts 137°
2026-05-04 20:02 14.52308 121.00461 39 ft 13 kts 135°
2026-05-04 20:03 14.52115 121.00661 40 ft 82 kts 134°
2026-05-04 20:03 14.51496 121.01303 51 ft 168 kts 134°
2026-05-04 20:03 14.50535 121.02275 412 ft 203 kts 136°
2026-05-04 20:03 14.49518 121.03300 1257 ft 208 kts 133°
2026-05-04 20:04 14.48623 121.04457 2265 ft 198 kts 126°
2026-05-04 20:04 14.47914 121.05720 2739 ft 216 kts 109°
2026-05-04 20:04 14.47573 121.06728 2915 ft 234 kts 109°
2026-05-04 20:04 14.46907 121.08316 3413 ft 247 kts 125°
2026-05-04 20:05 14.45504 121.09331 4179 ft 256 kts 162°
2026-05-04 20:05 14.43711 121.09293 4807 ft 268 kts 195°
2026-05-04 20:05 14.42154 121.08211 4972 ft 280 kts 229°
2026-05-04 20:05 14.41389 121.06362 4963 ft 288 kts 266°
2026-05-04 20:06 14.41463 121.04291 4978 ft 292 kts 269°
2026-05-04 20:06 14.41063 121.02234 4982 ft 293 kts 250°
2026-05-04 20:06 14.40690 121.00176 4955 ft 295 kts 276°
2026-05-04 20:06 14.41145 120.98135 4980 ft 292 kts 283°
2026-05-04 20:07 14.41464 120.96042 4990 ft 298 kts 276°
2026-05-04 20:07 14.41674 120.93917 5107 ft 297 kts 276°
2026-05-04 20:07 14.41903 120.91803 5949 ft 296 kts 277°
2026-05-04 20:07 14.42168 120.89698 6928 ft 295 kts 278°
2026-05-04 20:08 14.42454 120.87592 7749 ft 299 kts 278°
2026-05-04 20:08 14.42754 120.85440 8533 ft 305 kts 277°
2026-05-04 20:08 14.43005 120.83260 9264 ft 308 kts 268°
2026-05-04 20:08 14.42567 120.81110 9874 ft 308 kts 245°
2026-05-04 20:09 14.41731 120.79079 10427 ft 319 kts 245°
2026-05-04 20:09 14.40859 120.76877 10625 ft 345 kts 246°
2026-05-04 20:09 14.39937 120.74496 10819 ft 370 kts 246°
2026-05-04 20:09 14.38961 120.71958 11140 ft 388 kts 247°
2026-05-04 20:10 14.37956 120.69342 11762 ft 396 kts 247°
2026-05-04 20:10 14.36919 120.66686 12510 ft 400 kts 247°
2026-05-04 20:10 14.35870 120.64016 13335 ft 403 kts 247°
2026-05-04 20:10 14.34809 120.61323 14043 ft 407 kts 247°
2026-05-04 20:11 14.33740 120.58608 14656 ft 411 kts 247°
2026-05-04 20:11 14.32660 120.55862 15325 ft 415 kts 247°
2026-05-04 20:11 14.31573 120.53098 15992 ft 417 kts 247°
2026-05-04 20:11 14.30477 120.50311 16598 ft 422 kts 247°
2026-05-04 20:12 14.29371 120.47497 17201 ft 426 kts 246°
2026-05-04 20:12 14.28252 120.44652 17826 ft 429 kts 247°
2026-05-04 20:12 14.27124 120.41785 18404 ft 433 kts 247°
2026-05-04 20:12 14.25989 120.38901 18945 ft 435 kts 246°
2026-05-04 20:13 14.24850 120.36008 19520 ft 436 kts 246°
2026-05-04 20:13 14.23718 120.33136 20055 ft 439 kts 246°
2026-05-04 20:13 14.22548 120.30171 20557 ft 443 kts 246°
2026-05-04 20:13 14.21400 120.27264 21058 ft 446 kts 246°
2026-05-04 20:14 14.20225 120.24292 21536 ft 449 kts 246°
2026-05-04 20:14 14.19043 120.21301 22023 ft 452 kts 246°
2026-05-04 20:14 14.17853 120.18292 22510 ft 455 kts 246°
2026-05-04 20:14 14.16658 120.15264 22995 ft 458 kts 246°
2026-05-04 20:15 14.15459 120.12218 23481 ft 460 kts 246°
2026-05-04 20:15 14.14252 120.09149 23870 ft 463 kts 247°
2026-05-04 20:15 14.13042 120.06073 24276 ft 465 kts 246°
2026-05-04 20:15 14.11825 120.02979 24659 ft 467 kts 246°
2026-05-04 20:16 14.10601 119.99871 25023 ft 470 kts 247°
2026-05-04 20:16 14.09368 119.96743 25351 ft 473 kts 246°
2026-05-04 20:16 14.08127 119.93594 25729 ft 475 kts 246°
2026-05-04 20:16 14.06880 119.90434 26130 ft 477 kts 246°
2026-05-04 20:17 14.05627 119.87262 26450 ft 480 kts 247°
2026-05-04 20:17 14.04361 119.84071 26780 ft 483 kts 247°
2026-05-04 20:17 14.03081 119.80856 27155 ft 485 kts 246°
2026-05-04 20:17 14.01798 119.77638 27481 ft 488 kts 247°
2026-05-04 20:18 14.00502 119.74391 27766 ft 491 kts 246°
2026-05-04 20:18 13.99202 119.71130 28114 ft 493 kts 246°
2026-05-04 20:18 13.97897 119.67855 28392 ft 497 kts 246°
2026-05-04 20:18 13.96579 119.64552 28595 ft 502 kts 246°
2026-05-04 20:19 13.95250 119.61219 28903 ft 503 kts 246°
2026-05-04 20:19 13.93921 119.57888 29273 ft 504 kts 247°
2026-05-04 20:19 13.92589 119.54552 29684 ft 503 kts 247°
2026-05-04 20:19 13.91259 119.51222 30084 ft 503 kts 247°
2026-05-04 20:20 13.89933 119.47903 30521 ft 500 kts 247°
2026-05-04 20:20 13.88614 119.44603 31024 ft 497 kts 247°
2026-05-04 20:20 13.87306 119.41331 31558 ft 492 kts 247°
2026-05-04 20:20 13.86013 119.38098 32222 ft 484 kts 247°
2026-05-04 20:21 13.84736 119.34908 32735 ft 482 kts 247°
2026-05-04 20:21 13.83457 119.31714 33000 ft 484 kts 247°
2026-05-04 20:21 13.80906 119.25348 33871 ft 478 kts 247°
2026-05-04 20:22 13.78364 119.19012 33869 ft 481 kts 247°
2026-05-04 20:22 13.75812 119.12655 33873 ft 481 kts 247°
2026-05-04 20:23 13.73255 119.06290 33868 ft 483 kts 246°
2026-05-04 20:23 13.70684 118.99897 33878 ft 486 kts 246°
2026-05-04 20:24 13.68109 118.93500 33877 ft 489 kts 247°
2026-05-04 20:24 13.65504 118.87031 33881 ft 491 kts 247°
2026-05-04 20:25 13.62890 118.80544 33871 ft 491 kts 247°
2026-05-04 20:25 13.60270 118.74048 33878 ft 491 kts 247°
2026-05-04 20:26 13.57658 118.67578 33872 ft 490 kts 247°
2026-05-04 20:26 13.55055 118.61122 33877 ft 489 kts 247°
2026-05-04 20:27 13.52456 118.54678 33877 ft 488 kts 247°
2026-05-04 20:27 13.49858 118.48241 33871 ft 488 kts 247°
2026-05-04 20:28 13.47256 118.41800 33880 ft 488 kts 247°
2026-05-04 20:28 13.44653 118.35362 33877 ft 488 kts 247°
2026-05-04 20:29 13.42047 118.28923 33879 ft 488 kts 247°
2026-05-04 20:29 13.39438 118.22483 33879 ft 489 kts 247°
2026-05-04 20:30 13.36843 118.16079 33870 ft 489 kts 247°
2026-05-04 20:30 13.34232 118.09643 33881 ft 488 kts 247°
2026-05-04 20:31 13.31619 118.03210 33877 ft 488 kts 247°
2026-05-04 20:31 13.29012 117.96795 33868 ft 486 kts 247°
2026-05-04 20:32 13.26413 117.90403 33871 ft 485 kts 247°
2026-05-04 20:32 13.23813 117.84018 33868 ft 485 kts 247°
2026-05-04 20:33 13.21207 117.77621 33881 ft 486 kts 247°
2026-05-04 20:33 13.18592 117.71206 33874 ft 488 kts 247°
2026-05-04 20:34 13.15966 117.64772 33876 ft 489 kts 247°
2026-05-04 20:34 13.13332 117.58323 33877 ft 490 kts 247°
2026-05-04 20:35 13.10695 117.51872 33866 ft 491 kts 247°
2026-05-04 20:35 13.08058 117.45426 33883 ft 488 kts 248°
2026-05-04 20:36 13.05455 117.39067 33865 ft 480 kts 248°
2026-05-04 20:36 13.02876 117.32774 33869 ft 478 kts 248°
2026-05-04 20:37 13.00297 117.26483 33872 ft 480 kts 248°
2026-05-04 20:37 12.97708 117.20172 33877 ft 487 kts 248°
2026-05-04 20:38 12.95072 117.13754 33870 ft 487 kts 248°
2026-05-04 20:38 12.92458 117.07397 33864 ft 481 kts 248°
2026-05-04 20:39 12.89864 117.01092 33865 ft 479 kts 248°
2026-05-04 20:39 12.87276 116.94805 33874 ft 479 kts 248°
2026-05-04 20:40 12.84671 116.88478 33879 ft 484 kts 248°
2026-05-04 20:40 12.82040 116.82097 33878 ft 487 kts 248°
2026-05-04 20:41 12.79397 116.75692 33874 ft 489 kts 248°
2026-05-04 20:41 12.76749 116.69287 33866 ft 487 kts 248°
2026-05-04 20:42 12.74104 116.62903 33866 ft 486 kts 248°
2026-05-04 20:42 12.71468 116.56546 33863 ft 484 kts 248°
2026-05-04 20:43 12.68838 116.50205 33870 ft 483 kts 248°
2026-05-04 20:43 12.66210 116.43870 33869 ft 483 kts 248°
2026-05-04 20:44 12.63581 116.37538 33862 ft 483 kts 248°
2026-05-04 20:44 12.60946 116.31199 33868 ft 484 kts 248°
2026-05-04 20:45 12.58308 116.24855 33868 ft 485 kts 248°
2026-05-04 20:45 12.55662 116.18500 33867 ft 486 kts 249°
2026-05-04 20:46 12.53013 116.12139 33865 ft 486 kts 248°
2026-05-04 20:46 12.50358 116.05770 33862 ft 487 kts 248°
2026-05-04 20:47 12.47700 115.99400 33869 ft 486 kts 249°
2026-05-04 20:47 12.45042 115.93034 33863 ft 486 kts 248°
2026-05-04 20:48 12.42382 115.86670 33865 ft 487 kts 249°
2026-05-04 20:48 12.39720 115.80302 33865 ft 487 kts 249°
2026-05-04 20:49 12.37054 115.73931 33860 ft 488 kts 248°
2026-05-04 20:49 12.34401 115.67598 33865 ft 488 kts 248°
2026-05-04 20:50 12.31728 115.61219 33858 ft 488 kts 249°
2026-05-04 20:50 12.29053 115.54841 33863 ft 488 kts 248°
2026-05-04 20:51 12.26373 115.48455 33867 ft 489 kts 249°
2026-05-04 20:51 12.23689 115.42066 33860 ft 489 kts 249°
2026-05-04 20:52 12.21003 115.35677 33862 ft 489 kts 249°
2026-05-04 20:52 12.18312 115.29281 33863 ft 489 kts 249°
2026-05-04 20:53 12.15622 115.22892 33862 ft 490 kts 249°
2026-05-04 20:53 12.12930 115.16502 33864 ft 490 kts 248°
2026-05-04 20:54 12.10253 115.10153 33860 ft 490 kts 248°
2026-05-04 20:54 12.07558 115.03766 33859 ft 490 kts 248°
2026-05-04 20:55 12.04861 114.97381 33869 ft 489 kts 248°
2026-05-04 20:55 12.02173 114.91017 33857 ft 489 kts 248°
2026-05-04 20:56 11.99482 114.84656 33857 ft 488 kts 249°
2026-05-04 20:56 11.97227 114.79327 33862 ft 487 kts 248°
2026-05-04 20:57 11.94556 114.73016 33851 ft 488 kts 248°
2026-05-04 20:57 11.91860 114.66655 33865 ft 489 kts 248°
2026-05-04 20:58 11.89156 114.60278 33861 ft 490 kts 248°
2026-05-04 20:58 11.86443 114.53886 33862 ft 491 kts 248°
2026-05-04 20:59 11.83724 114.47485 33862 ft 492 kts 248°
2026-05-04 20:59 11.81000 114.41075 33859 ft 492 kts 247°
2026-05-04 21:00 11.78278 114.34673 33862 ft 492 kts 248°
2026-05-04 21:00 11.75554 114.28273 33858 ft 491 kts 248°
2026-05-04 21:01 11.72836 114.21892 33860 ft 490 kts 247°
2026-05-04 21:01 11.70119 114.15517 33861 ft 489 kts 248°
2026-05-04 21:02 11.67406 114.09153 33847 ft 489 kts 247°
2026-05-04 21:02 11.64734 114.02765 33859 ft 490 kts 250°
2026-05-04 21:03 11.62984 113.96058 33860 ft 490 kts 262°
2026-05-04 21:03 11.62195 113.89163 33858 ft 490 kts 264°
2026-05-04 21:04 11.61464 113.82242 33865 ft 491 kts 264°
2026-05-04 21:04 11.60700 113.75316 33862 ft 492 kts 264°
2026-05-04 21:05 11.59914 113.68398 33865 ft 491 kts 263°
2026-05-04 21:05 11.59122 113.61485 33859 ft 490 kts 263°
2026-05-04 21:06 11.58331 113.54584 33859 ft 489 kts 264°
2026-05-04 21:06 11.57541 113.47695 33864 ft 489 kts 263°
2026-05-04 21:07 11.56751 113.40816 33860 ft 488 kts 263°
2026-05-04 21:07 11.55959 113.33936 33866 ft 488 kts 263°
2026-05-04 21:08 11.55164 113.27051 33862 ft 489 kts 263°
2026-05-04 21:08 11.54367 113.20160 33865 ft 489 kts 263°
2026-05-04 21:09 11.53569 113.13268 33864 ft 490 kts 263°
2026-05-04 21:09 11.52767 113.06365 33856 ft 491 kts 263°
2026-05-04 21:10 11.51962 112.99446 33866 ft 492 kts 263°
2026-05-04 21:10 11.51159 112.92561 33864 ft 493 kts 263°
2026-05-04 21:11 11.50348 112.85620 33864 ft 493 kts 263°
2026-05-04 21:11 11.49535 112.78673 33863 ft 494 kts 263°
2026-05-04 21:12 11.48719 112.71716 33861 ft 494 kts 263°
2026-05-04 21:12 11.47902 112.64761 33864 ft 494 kts 263°
2026-05-04 21:13 11.47082 112.57788 33860 ft 496 kts 263°
2026-05-04 21:13 11.46301 112.50801 33866 ft 497 kts 263°
2026-05-04 21:14 11.45536 112.43778 33867 ft 499 kts 263°
2026-05-04 21:14 11.44766 112.36749 33861 ft 500 kts 263°
2026-05-04 21:15 11.43988 112.29703 33869 ft 500 kts 263°
2026-05-04 21:15 11.43206 112.22663 33864 ft 500 kts 263°
2026-05-04 21:16 11.42423 112.15634 33865 ft 499 kts 263°
2026-05-04 21:16 11.41640 112.08610 33867 ft 498 kts 263°
2026-05-04 21:17 11.40856 112.01602 33863 ft 497 kts 263°
2026-05-04 21:17 11.40073 111.94600 33869 ft 497 kts 263°
2026-05-04 21:18 11.39287 111.87605 33863 ft 497 kts 263°
2026-05-04 21:18 11.38501 111.80610 33868 ft 497 kts 263°
2026-05-04 21:19 11.37712 111.73616 33870 ft 496 kts 263°
2026-05-04 21:19 11.36924 111.66641 33862 ft 495 kts 263°
2026-05-04 21:20 11.36137 111.59683 33862 ft 493 kts 263°
2026-05-04 21:20 11.35355 111.52794 33862 ft 492 kts 263°
2026-05-04 21:21 11.34568 111.45865 33863 ft 492 kts 263°
2026-05-04 21:21 11.33779 111.38944 33862 ft 492 kts 263°
2026-05-04 21:22 11.32989 111.32021 33864 ft 492 kts 263°
2026-05-04 21:22 11.32197 111.25098 33863 ft 492 kts 263°
2026-05-04 21:23 11.31403 111.18165 33864 ft 493 kts 263°
2026-05-04 21:23 11.30606 111.11226 33858 ft 493 kts 263°
2026-05-04 21:24 11.29776 111.04292 33864 ft 493 kts 263°
2026-05-04 21:24 11.28905 110.97359 33864 ft 494 kts 263°
2026-05-04 21:25 11.28032 110.90417 33863 ft 494 kts 263°
2026-05-04 21:25 11.27164 110.83472 33857 ft 495 kts 263°
2026-05-04 21:26 11.26296 110.76512 33862 ft 496 kts 262°
2026-05-04 21:26 11.25423 110.69525 33866 ft 498 kts 262°
2026-05-04 21:27 11.24545 110.62513 33867 ft 500 kts 262°
2026-05-04 21:27 11.23663 110.55488 33860 ft 500 kts 262°
2026-05-04 21:28 11.22779 110.48461 33865 ft 500 kts 262°
2026-05-04 21:28 11.21895 110.41451 33864 ft 498 kts 263°
2026-05-04 21:29 11.21015 110.34471 33858 ft 496 kts 263°
2026-05-04 21:29 11.20136 110.27525 33860 ft 494 kts 263°
2026-05-04 21:30 11.19263 110.20639 33861 ft 493 kts 263°
2026-05-04 21:30 11.18385 110.13721 33866 ft 492 kts 263°
2026-05-04 21:31 11.17064 110.03345 33866 ft 493 kts 263°
2026-05-04 21:32 11.16181 109.96421 33865 ft 493 kts 263°
2026-05-04 21:32 11.15295 109.89487 33868 ft 494 kts 263°
2026-05-04 21:33 11.14407 109.82552 33865 ft 494 kts 263°
2026-05-04 21:33 11.13516 109.75606 33869 ft 495 kts 263°
2026-05-04 21:34 11.12624 109.68659 33865 ft 495 kts 263°
2026-05-04 21:34 11.11729 109.61712 33865 ft 495 kts 263°
2026-05-04 21:35 11.10835 109.54772 33867 ft 494 kts 263°
2026-05-04 21:35 11.09981 109.47829 33864 ft 494 kts 264°
2026-05-04 21:36 11.09165 109.40887 33870 ft 493 kts 263°
2026-05-04 21:36 11.08341 109.33954 33864 ft 493 kts 263°
2026-05-04 21:37 11.07512 109.27039 33868 ft 492 kts 263°
2026-05-04 21:37 11.06681 109.20134 33862 ft 491 kts 263°
2026-05-04 21:38 11.05849 109.13234 33866 ft 491 kts 263°
2026-05-04 21:38 11.05018 109.06347 33869 ft 490 kts 263°
2026-05-04 21:39 11.04186 108.99471 33865 ft 489 kts 263°
2026-05-04 21:39 11.03354 108.92608 33861 ft 488 kts 263°
2026-05-04 21:40 11.02523 108.85761 33863 ft 487 kts 263°
2026-05-04 21:40 11.01688 108.78910 33864 ft 487 kts 263°
2026-05-04 21:41 11.00851 108.72113 33867 ft 488 kts 263°
2026-05-04 21:41 11.00007 108.65259 33863 ft 488 kts 263°
2026-05-04 21:42 10.99161 108.58405 33864 ft 488 kts 263°
2026-05-04 21:42 10.98315 108.51549 33867 ft 488 kts 263°
2026-05-04 21:43 10.97466 108.44693 33862 ft 488 kts 263°
2026-05-04 21:43 10.96616 108.37834 33876 ft 488 kts 263°
2026-05-04 21:44 10.95766 108.30992 33871 ft 487 kts 263°
2026-05-04 21:44 10.94917 108.24163 33865 ft 483 kts 263°
2026-05-04 21:45 10.94087 108.17505 33460 ft 468 kts 263°
2026-05-04 21:45 10.93680 108.14242 33018 ft 463 kts 263°
2026-05-04 21:45 10.93412 108.12098 32706 ft 460 kts 263°
2026-05-04 21:45 10.93010 108.08880 32223 ft 457 kts 263°
2026-05-04 21:46 10.92803 108.05670 31751 ft 453 kts 273°
2026-05-04 21:46 10.93122 108.02494 31304 ft 450 kts 277°
2026-05-04 21:46 10.93581 107.99359 30837 ft 447 kts 278°
2026-05-04 21:46 10.94063 107.96243 30361 ft 445 kts 278°
2026-05-04 21:47 10.94527 107.93133 29874 ft 444 kts 278°
2026-05-04 21:47 10.94963 107.90032 29333 ft 442 kts 277°
2026-05-04 21:47 10.95375 107.86940 28840 ft 439 kts 277°
2026-05-04 21:47 10.95770 107.83872 28363 ft 436 kts 277°
2026-05-04 21:48 10.96156 107.80818 27883 ft 434 kts 277°
2026-05-04 21:48 10.96538 107.77784 27415 ft 431 kts 277°
2026-05-04 21:48 10.96916 107.74768 26959 ft 428 kts 277°
2026-05-04 21:48 10.97293 107.71770 26508 ft 426 kts 277°
2026-05-04 21:49 10.97669 107.68784 26057 ft 424 kts 277°
2026-05-04 21:49 10.98043 107.65812 25603 ft 422 kts 277°
2026-05-04 21:49 10.98415 107.62854 25140 ft 421 kts 277°
2026-05-04 21:49 10.98782 107.59942 24691 ft 419 kts 277°
2026-05-04 21:50 10.99152 107.57002 24221 ft 419 kts 277°
2026-05-04 21:50 10.99520 107.54067 23779 ft 418 kts 277°
2026-05-04 21:50 10.99887 107.51142 23296 ft 417 kts 277°
2026-05-04 21:50 11.00254 107.48224 22808 ft 415 kts 277°
2026-05-04 21:51 11.00617 107.45323 22348 ft 412 kts 277°
2026-05-04 21:51 11.00878 107.42447 21871 ft 405 kts 267°
2026-05-04 21:51 11.00312 107.39674 21449 ft 400 kts 246°
2026-05-04 21:51 10.98937 107.37235 21058 ft 396 kts 232°
2026-05-04 21:52 10.97005 107.35268 20639 ft 392 kts 218°
2026-05-04 21:52 10.94855 107.33586 20204 ft 389 kts 217°
2026-05-04 21:52 10.92691 107.31933 19792 ft 388 kts 217°
2026-05-04 21:52 10.90538 107.30279 19360 ft 388 kts 217°
2026-05-04 21:53 10.88397 107.28615 18931 ft 387 kts 217°
2026-05-04 21:53 10.86267 107.26941 18500 ft 387 kts 217°
2026-05-04 21:53 10.84145 107.25264 18055 ft 387 kts 217°
2026-05-04 21:53 10.82024 107.23584 17576 ft 386 kts 217°
2026-05-04 21:54 10.79908 107.21909 17131 ft 384 kts 217°
2026-05-04 21:54 10.78021 107.20050 16683 ft 378 kts 235°
2026-05-04 21:54 10.76876 107.17661 16277 ft 377 kts 254°
2026-05-04 21:54 10.76423 107.15057 15875 ft 372 kts 262°
2026-05-04 21:55 10.76099 107.12449 15463 ft 372 kts 263°
2026-05-04 21:55 10.75777 107.09839 15050 ft 372 kts 263°
2026-05-04 21:55 10.75451 107.07230 14629 ft 372 kts 262°
2026-05-04 21:55 10.75115 107.04617 14209 ft 373 kts 262°
2026-05-04 21:56 10.74773 107.02004 13784 ft 373 kts 262°
2026-05-04 21:56 10.74425 106.99382 13323 ft 374 kts 262°
2026-05-04 21:56 10.74075 106.96765 12885 ft 374 kts 262°
2026-05-04 21:56 10.73723 106.94149 12456 ft 373 kts 262°
2026-05-04 21:57 10.73372 106.91539 12035 ft 373 kts 262°
2026-05-04 21:57 10.73020 106.88930 11611 ft 372 kts 262°
2026-05-04 21:57 10.72670 106.86327 11251 ft 370 kts 262°
2026-05-04 21:57 10.72325 106.83768 11103 ft 361 kts 262°
2026-05-04 21:58 10.71923 106.81292 10921 ft 349 kts 253°
2026-05-04 21:58 10.70865 106.79118 10652 ft 342 kts 230°
2026-05-04 21:58 10.69281 106.77349 10254 ft 339 kts 225°
2026-05-04 21:58 10.67682 106.75607 10051 ft 333 kts 226°
2026-05-04 21:59 10.66175 106.73932 9863 ft 308 kts 226°
2026-05-04 21:59 10.64769 106.72359 9367 ft 295 kts 226°
2026-05-04 21:59 10.63407 106.70836 8706 ft 288 kts 226°
2026-05-04 21:59 10.62072 106.69340 8106 ft 281 kts 226°
2026-05-04 22:00 10.60780 106.67894 7762 ft 277 kts 226°
2026-05-04 22:00 10.59453 106.66410 7419 ft 289 kts 226°
2026-05-04 22:00 10.58085 106.64880 7034 ft 294 kts 226°
2026-05-04 22:00 10.56622 106.63494 6881 ft 281 kts 215°
2026-05-04 22:01 10.55022 106.62326 6905 ft 286 kts 213°
2026-05-04 22:01 10.53426 106.61175 6868 ft 282 kts 217°
2026-05-04 22:01 10.52179 106.59665 6880 ft 281 kts 241°
2026-05-04 22:01 10.51301 106.57871 6884 ft 286 kts 242°
2026-05-04 22:02 10.50375 106.56065 6883 ft 290 kts 241°
2026-05-04 22:02 10.49417 106.54267 6877 ft 288 kts 240°
2026-05-04 22:02 10.48458 106.52488 6874 ft 286 kts 240°
2026-05-04 22:02 10.47502 106.50721 6886 ft 285 kts 241°
2026-05-04 22:03 10.46882 106.48846 6872 ft 282 kts 268°
2026-05-04 22:03 10.47038 106.46860 6902 ft 285 kts 278°
2026-05-04 22:03 10.47282 106.44833 6890 ft 291 kts 277°
2026-05-04 22:03 10.47508 106.42792 6883 ft 290 kts 277°
2026-05-04 22:04 10.47729 106.40769 6870 ft 287 kts 277°
2026-05-04 22:04 10.47949 106.38755 6869 ft 285 kts 277°
2026-05-04 22:04 10.48229 106.36782 6856 ft 279 kts 289°
2026-05-04 22:04 10.49174 106.35097 6880 ft 276 kts 314°
2026-05-04 22:05 10.50490 106.33639 6904 ft 284 kts 314°
2026-05-04 22:05 10.51807 106.32134 6889 ft 284 kts 313°
2026-05-04 22:05 10.53102 106.30641 6876 ft 278 kts 314°
2026-05-04 22:05 10.54585 106.29462 6872 ft 270 kts 341°
2026-05-04 22:06 10.56410 106.29151 6892 ft 268 kts
2026-05-04 22:06 10.58195 106.29685 6672 ft 272 kts 31°
2026-05-04 22:06 10.59634 106.30893 6377 ft 265 kts 54°
2026-05-04 22:06 10.60593 106.32441 6099 ft 256 kts 60°
2026-05-04 22:07 10.61505 106.33992 5817 ft 255 kts 60°
2026-05-04 22:07 10.62417 106.35535 5555 ft 254 kts 60°
2026-05-04 22:07 10.63328 106.37074 5294 ft 254 kts 60°
2026-05-04 22:07 10.64243 106.38612 5031 ft 254 kts 60°
2026-05-04 22:08 10.65159 106.40146 4772 ft 254 kts 60°
2026-05-04 22:08 10.66076 106.41678 4502 ft 253 kts 60°
2026-05-04 22:08 10.66991 106.43206 4214 ft 252 kts 60°
2026-05-04 22:08 10.67912 106.44691 3973 ft 242 kts 53°
2026-05-04 22:09 10.69210 106.45753 3916 ft 245 kts 31°
2026-05-04 22:09 10.70720 106.46565 3922 ft 243 kts 31°
2026-05-04 22:09 10.72151 106.47368 3928 ft 226 kts 32°
2026-05-04 22:09 10.73465 106.48107 3864 ft 204 kts 32°
2026-05-04 22:10 10.74639 106.48765 3845 ft 183 kts 33°
2026-05-04 22:10 10.75508 106.49563 3842 ft 161 kts 67°
2026-05-04 22:10 10.75930 106.50635 3896 ft 165 kts 65°
2026-05-04 22:10 10.76469 106.51637 3898 ft 158 kts 64°
2026-05-04 22:11 10.76944 106.52625 3723 ft 154 kts 68°
2026-05-04 22:11 10.77348 106.53621 3206 ft 152 kts 70°
2026-05-04 22:11 10.77724 106.54603 2537 ft 151 kts 71°
2026-05-04 22:11 10.78098 106.55595 1893 ft 147 kts 71°
2026-05-04 22:12 10.78472 106.56590 1698 ft 153 kts 71°
2026-05-04 22:12 10.78851 106.57595 1501 ft 151 kts 71°
2026-05-04 22:12 10.79230 106.58569 1177 ft 150 kts 71°
2026-05-04 22:12 10.79596 106.59581 921 ft 152 kts 72°
2026-05-04 22:13 10.79944 106.60599 690 ft 154 kts 70°
2026-05-04 22:13 10.80323 106.61598 532 ft 149 kts 69°
2026-05-04 22:13 10.80709 106.62555 371 ft 142 kts 68°
2026-05-04 22:13 10.81062 106.63471 172 ft 137 kts 68°
2026-05-04 22:14 10.81394 106.64351 68 ft 131 kts 69°
2026-05-04 22:14 10.81689 106.65137 44 ft 89 kts 69°
2026-05-04 22:14 10.81810 106.65484 43 ft 22 kts 81°
2026-05-04 22:14 10.81811 106.65525 43 ft 0 kts 92°
2026-05-04 22:15 10.81811 106.65529 43 ft 7 kts 91°
2026-05-04 22:15 10.81793 106.65595 43 ft 5 kts 111°
2026-05-04 22:15 10.81766 106.65663 42 ft 14 kts 112°
2026-05-04 22:15 10.81731 106.65739 42 ft 6 kts 115°
2026-05-04 22:16 10.81728 106.65747 41 ft 0 kts 114°
2026-05-04 22:16 10.81715 106.65774 41 ft 0 kts 120°
2026-05-04 22:16 10.81708 106.65784 41 ft 8 kts 124°
2026-05-04 22:16 10.81636 106.65802 41 ft 10 kts 180°
2026-05-04 22:17 10.81603 106.65800 41 ft 5 kts 184°
2026-05-04 22:17 10.81531 106.65792 41 ft 12 kts 187°
2026-05-04 22:17 10.81449 106.65783 41 ft 12 kts 184°
2026-05-04 22:17 10.81342 106.65776 41 ft 19 kts 180°
2026-05-04 22:18 10.81261 106.65814 41 ft 7 kts 149°
2026-05-04 22:18 10.81253 106.65841 41 ft 0 kts 84°
2026-05-04 22:18 10.81261 106.65897 41 ft 18 kts 81°
2026-05-04 22:18 10.81313 106.66022 41 ft 20 kts 17°
2026-05-04 22:19 10.81404 106.65970 41 ft 11 kts 281°
2026-05-04 22:19 10.81407 106.65951 41 ft 0 kts 279°
2026-05-04 22:19 10.81407 106.65949 41 ft 1 kts 277°
2026-05-04 22:19 10.81407 106.65944 41 ft 0 kts 277°